Regional Weather Roundup
Issued by NWS Binghamton, NY

Home | Current Version | Previous Version | Text Only | Print | Product List | Glossary On
Versions: 1 2 3 4 5 6 7 8 9 10 11 12 13 14 15 16 17 18 19 20 21 22 23 24 25 26 27 28 29 30 31 32 33 34 35 36 37 38 39 40 41 42 43 44 45 46 47 48 49 50
000
ASUS41 KBGM 301710
RWRBGM
RWRBGM
BINGHAMTON REGIONAL WEATHER ROUNDUP
NATIONAL WEATHER SERVICE BINGHAMTON NY
100 PM EDT TUE SEP 30 2014

Note: "fair" indicates few or no clouds below 12,000 feet with no
significant weather and/or obstructions to visibility.

* = Station(s) that does not report precipitation, such as rain,
snow, etc, also no thunder or fog.

!NYZ009-015>018-022>025-036-037-044>046-055>057-062-301800
...CENTRAL NEW YORK...

CITY           SKY/WX    TMP DP  RH WIND       PRES   REMARKS
BINGHAMTON     MOSUNNY   70  60  70 E5        29.93F
CORTLAND       FAIR      72  55  56 CALM      29.92F
DANSVILLE      MOSUNNY   75  54  47 VRB3      29.88F
ELMIRA         SUNNY     75  56  51 VRB3      29.89F
ITHACA         MOSUNNY   76  55  47 S3        29.92S
HAMILTON       SUNNY     73  59  60 SE8       29.92
MONTICELLO     PTSUNNY   66  57  72 SE6       29.98S
NORWICH        MOSUNNY   72  59  64 S5        29.94S
ONEONTA        MOSUNNY   68  55  64 W5        29.95F
PENN YAN       SUNNY     74  58  57 SW6       29.90F
ROME           MOSUNNY   71  61  70 E12       29.94S
SIDNEY         PTSUNNY   72  64  78 S6        29.94S
SYRACUSE       MOSUNNY   76  61  59 NE5       29.89F
$$

!PAZ038>040-043-044-047-048-072-301800
...NORTHEAST PENNSYLVANIA...

CITY           SKY/WX    TMP DP  RH WIND       PRES   REMARKS
HAZLETON       CLOUDY    66  59  77 SE3       29.98F
SCRANTON       MOSUNNY   73  57  57 W3        29.92F
$$
&&
KEY
WCI = WIND CHILL INDEX
VSB = VISIBILITY
HX  = HEAT INDEX
$$


USA.gov is the U.S. government's official web portal to all federal, state and local government web resources and services.